Погода Остров Визе

Погода Остров Визе : погода сейчас, прогноз погоды и архив. Всё, что Вы хотите узнать о погоде Остров Визе!

Поиск расширенной информации на нашем сайте:

Другие новости

Новости СМИ2

Главная страница сайта

Новости сайта

03.07.2017

Напоминаем, что на нашем специализированном сайте Метеоцентр.Азия вы можете получить высокодетализированные автоматические прогнозы погоды по пунктам России, СНГ и мира в авиационном формате (включающие направление и скорость ветра, видимость, явления погоды, количество и форму облачности, нижнюю и верхнюю границу облачности).


Погода Остров Визе - сегодня

Время (UTC), дата Ветер
(°,м/с) 
Видим.   Явления Облачность Т
(°С)
Тd
(°С)
f(%) Тe
(°С)
Pmin
(гПа)
dP
(гПа)
Po
(мм)
O2
(г/м3)
Тmin Tmax R s Состояние
почвы
06 20.10.17 090 (В) 11-13{17}  3700 м  метель  10/10 500 м 
[Sc]
-6.2 -6.2 100 -13  1007.8  -0.7  755  312           
12 20.10.17 080 (В) 8-10{12}  20000 м  позёмок  9/9 700 м 
[Sc]
-5.5 -5.7 98 -11  1007.4  -0.1  754  311    -5.5       
15 20.10.17 080 (В) 7{10}  21000 м  позёмок  9/9 630 м 
[Sc]
-4.7 -5.1 97 -10  1007.5  0.1  754  310           
18 20.10.17 070 (В) 6000 м  слаб. снег  10/10 450 м 
[Ns]
-4.3 -4.6 98 -9  1008  0.5  755  309           
21 20.10.17 060 (СВ) 5000 м  слаб. снег  10/10 300 м 
[Ns]
-4 -4 100 -9  1008.3  0.3  755  309           
00 21.10.17 060 (СВ) 5000 м  слаб. снег  10/10 240 м 
[Frnb|Ns]
-3.6 -3.6 100 -8  1008.7  0.4  755  309  -5.5    неравномерный
сухой снег
100% 
03 21.10.17 050 (СВ) 4000 м  слаб. снег  10/10 270 м 
[Frnb|Ns]
-3.2 -3.2 100 -7  1009.5  0.8  756  309           
06 21.10.17 040 (СВ) 5000 м  слаб. снег  10/10 300 м 
[Frnb|Ns]
-3.3 -3.3 100 -7  1010.3  0.8  756  309           
09 21.10.17 050 (СВ) 6000 м  слаб. снег  10/10 300 м 
[Frnb|Ns]
-3.4 -3.4 100 -7  1011.2  0.9  757  309           
12 21.10.17 030 (СВ) 4000 м  слаб. снег  10/10 300 м 
[Frnb|Ns]
-4.1 -4.1 100 -9  1012.1  0.9  758  310    -3     
15 21.10.17 030 (СВ) 9-10{12}  6000 м  слаб. снег  10/10 300 м 
[Frnb|Ns]
-5.6 -5.6 100 -11  1013  0.8  758  313           
18 21.10.17 030 (СВ) 10-11{12}  6000 м  слаб. снег  10/10 300 м 
[Frnb|Ns]
-7.1 -7.2 99 -14  1013.7  0.7  759  315           
21 21.10.17 030 (СВ) 10-11{13}  20000 м  позёмок{снег}  9/0 средняя 
[Ac As]
-8.4 -8.6 98 -15  1014.6  0.9  760  317           
00 22.10.17 030 (СВ) 9-11{12}  19000 м  позёмок{снег}  9/0 средняя 
[Ac As]
-10 -10.5 96 -17  1015.5  0.9  760  319  -10    0.7  неравномерный
сухой снег
100% 
03 22.10.17 030 (СВ) 8-10{11}  20000 м  позёмок  6/0 средняя 
[Ac trans]
-12.9 -13.4 96 -20  1016.3  0.8  761  323  -12.9         
06 22.10.17 020 (С) 7{10}  24000 м    5/0 средняя, верхняя 
[Ac trans|Ci fib]
-13.8 -14.3 96 -20  1017  0.7  761  324           
09 22.10.17 020 (С) 7{10}  24000 м    3/0 средняя, верхняя 
[Ac trans|Ci fib]
-15.1 -15.8 94 -22  1017.7  0.7  762  326           
12 22.10.17 020 (С) 20000 м    3/0 верхняя 
[Ci fib]
-16 -16.8 94 -21  1017.4  -0.3  762  327    -10       
15 22.10.17 350 (С) 19000 м    3/0 верхняя 
[Ci fib]
-15.2 -15.9 94 -19  1017  -0.4  761  326           
18 22.10.17 340 (С) 20000 м    4/0 верхняя 
[Ci fib]
-14.9 -15.6 94 -19  1016.2  -0.8  761  326           
21 22.10.17 080 (В) 0500 м  переохл. туман  ?/?  
-12.2 -12.5 98 -12  1014.5  -1.7  759  322           
00 23.10.17 270 (З) 3000 м  дымка{туман}  10/10 450 м 
[Sc]
-7.7 -7.7 100 -11  1012.5  -2  758  315  -16.5      неравномерный
сухой снег
100% 
03 23.10.17 240 (ЮЗ) 4000 м  слаб. снег  10/6 480 м средняя 
[Sc|As op]
-6.6 -6.7 99 -10  1010.1  -2.3  756  313           
06 23.10.17 210 (ЮЗ) 5000 м  слаб. снег  10/6 570 м средняя 
[Sc|As trans]
-4.1 -4.1 100 -9  1007.1  -3  754  309           
12 23.10.17 200 (Ю) 9-11{12}  2200 м  снег  10/10 210 м 
[Frnb|Ns]
-2 -2 100 -7  999.7  -4.3  748  304    -2     
Время (UTC), дата Ветер
(°,м/с) 
Видим.   Явления Облачность Т
(°С)
Тd
(°С)
f(%) Тe
(°С)
Pmin
(гПа)
dP
(гПа)
Po
(мм)
O2
(г/м3)
Тmin Tmax R s Состояние
почвы

Для получения пояснительной информации подведите курсор к названию столбца.

ПОГОДА Остров Визе - архив

Всё, что Вы хотите узнать о погоде Остров Визе - удобно и подробно!

Выберите нужную дату (начиная с 1 января 2015* года) и нажмите кнопку "Найти".
Будут отображены архивные сводки погоды по пункту Остров Визе, начиная с указанной даты.


Отображать данные в формате CSV (для использования в таблицах Excel)


Внимание! Наш архив погоды предназначен исключительно для личного некоммерческого использования в познавательных целях. Если Вам необходимы официальные справки о состоянии погоды (для производственных, юридических, коммерческих и т.п. целей), обращайтесь в органы Росгидромета.

*Примечание: данная дата относится к архиву по метеостанциям СССР (Россия, СНГ, Балтия).
Архив по метеостанциям Зарубежной Европы и Азии (кроме Китая) хранится 10 дней, по другим регионам земного шара (Китай, Африка, Америка, Австралия, Океания) - 1 день.

Остров Визе - район местоположения метеостанции


Название, широта, долгота, высота метеостанции:
Остров Визе 79.5°ш. 77°д. 10 м над ур. моря [Российская Федерация]

Дополнительная информация

В oтличие oт бoльшинства пoгoдных сайтoв мы публикуем пoдрoбную метеoинфoрмацию в детальнoм прoфессиoнальнoм фoрмате.

Характеристики температуры и влажнoсти вoздуха измеряются на высoте 2 м в тени вдали oт зданий и деревьев.
Скoрoсть ветра измеряется на высoте 10 м (на урoвне рoста челoвека скoрoсть ветра ниже в 1.5-2 раза). Если метеoстанция нахoдится в гoрoде или в лесу, тo скoрoсть ветра занижена на 2-4 м/с пo сравнению с oткрытым местoм. Скoрoсть ветра над акватoриями крупных рек и oзёр, а также на вершинах хoлмoв на 2-5 м/с выше, чем в oбычных услoвиях.
Атмoсфернoе давление в разных тoчках местнoсти мoжет значительнo oтличаться oт давления на метеoстанции, в зависимoсти oт услoвий рельефа (при пoдъёме на 10 м давление пoнижается примернo на 1 мм рт.ст.).